Flag for U.S.A. Weather past 2 weeks in Detroit, Michigan, U.S.A.

Now
62 °F

Clear.


Feels Like: 62 °F
Forecast: 60 / 82 °F
Wind: 8 mph from Southeast

Location: Detroit City Airport

Current Time: May 29, 2015 at 2:26:12 AM

Latest Report: May 29, 2015 at 1:53 AM


Visibility: 10 mi

Pressure: 30.18 "Hg

Humidity: 62%

Dew point: 49 °F

Location of DetroitLocation

Historic Weather in Detroit — Graph

°F

Detroit temperature yesterday

Maximum temperature yesterday: 76 °F (at 3:53 PM)
Minimum temperature yesterday: 56 °F (at 5:53 AM)
Average temperature yesterday: 68 °F

Past Weeks' High & Low Weather Summary

 TemperatureHumidityPressure
High83 °F (May 18, 2:53 PM)97% (May 17, 8:04 AM)30.50 "Hg (May 17, 8:04 AM)
Low39 °F (May 14, 3:53 AM)22% (May 22, 6:53 PM)29.84 "Hg (May 26, 6:53 PM)
Average64 °F61%30.11 "Hg
* Reported May 14 12:53 AM — May 29 12:53 AM, Detroit, Weather by CustomWeather, © 2015

Note: Actual official high and low records may vary slightly from our data, if they occured in-between our weather recording intervals... More about our weather records

Advertising

Detroit weather history for previous 24 hours

 ConditionsComfort  
Time TempWeatherWind HumidityBarometerVisibility
12:53 AM
Fri, May 29
63 °FClear.6 mph58%30.19 "Hg10 mi
11:53 PM
Thu, May 28
64 °FClear.5 mph58%30.20 "Hg10 mi
10:53 PM65 °FClear.6 mph61%30.21 "Hg10 mi
9:53 PM66 °FSunny.7 mph61%30.21 "Hg10 mi
8:53 PM69 °FSunny.6 mph51%30.20 "Hg10 mi
7:53 PM72 °FSunny.6 mph46%30.21 "Hg10 mi
6:53 PM75 °FSunny.7 mph45%30.20 "Hg10 mi
5:53 PM76 °FSunny.7 mph43%30.22 "Hg10 mi
4:53 PM76 °FSunny.9 mph45%30.22 "Hg10 mi
3:53 PM76 °FSunny.8 mph52%30.23 "Hg10 mi
2:53 PM75 °FSunny.10 mph60%30.24 "Hg10 mi
1:53 PM75 °FPassing clouds.7 mph60%30.26 "Hg10 mi
12:53 PM74 °FSunny.7 mph57%30.26 "Hg10 mi
11:53 AM73 °FSunny.8 mph53%30.26 "Hg10 mi
10:53 AM71 °FSunny.7 mph57%30.24 "Hg10 mi
9:53 AM71 °FSunny.No wind55%30.24 "Hg10 mi
8:53 AM68 °FSunny.No wind65%30.22 "Hg10 mi
7:53 AM63 °FSunny.No wind84%30.22 "Hg10 mi
6:53 AM58 °FClear.No wind90%30.22 "Hg10 mi
5:53 AM56 °FClear.No wind90%30.19 "Hg10 mi
4:53 AM59 °FClear.No wind87%30.17 "Hg10 mi
3:53 AM59 °FClear.No wind87%30.15 "Hg10 mi
2:53 AM60 °FClear.No wind83%30.14 "Hg10 mi
Weather by CustomWeather, © 2015

See weather overviewHow to use our weather pages